Wetterdaten: Samstag, 07.02.2015
Datum Zeit Temp. A. Feuchte A. Luftdruck Regen Wind Richtung Richtung Sonnenschein ET UV Solar Taupunkt Windchill Windben Empfang
07.02.2015 00:00 -3,6 C 53 % 1025,3 hPa 0,0 l/m 0,4 km/h (0 Bft) O-NO 58 0 min 0,000 mm 0,0 UV-I 0 W/m -11,8 C -3,6 C 4,0 km/h (1 Bft) 0,00 %
07.02.2015 00:15 -3,6 C 53 % 1025,5 hPa 0,0 l/m 7,9 km/h (2 Bft) O-NO 64 0 min 0,000 mm 0,0 UV-I 0 W/m -11,8 C -5,3 C 11,9 km/h (2 Bft) 0,00 %
07.02.2015 00:30 -3,7 C 54 % 1025,7 hPa 0,0 l/m 4,0 km/h (1 Bft) O 91 0 min 0,000 mm 0,0 UV-I 0 W/m -11,6 C -3,7 C 7,9 km/h (2 Bft) 0,00 %
07.02.2015 00:45 -3,7 C 54 % 1025,6 hPa 0,0 l/m 4,7 km/h (1 Bft) O-SO 109 0 min 0,000 mm 0,0 UV-I 0 W/m -11,6 C -3,7 C 7,9 km/h (2 Bft) 0,00 %
07.02.2015 01:00 -3,8 C 55 % 1025,9 hPa 0,0 l/m 4,0 km/h (1 Bft) O-SO 109 0 min 0,000 mm 0,0 UV-I 0 W/m -11,5 C -3,8 C 7,9 km/h (2 Bft) 0,00 %
07.02.2015 01:15 -3,8 C 55 % 1025,9 hPa 0,0 l/m 4,0 km/h (1 Bft) O-NO 77 0 min 0,000 mm 0,0 UV-I 0 W/m -11,5 C -3,8 C 7,9 km/h (2 Bft) 0,00 %
07.02.2015 01:30 -3,8 C 54 % 1025,9 hPa 0,0 l/m 0,4 km/h (0 Bft) S-SW 211 0 min 0,000 mm 0,0 UV-I 0 W/m -11,7 C -3,8 C 4,0 km/h (1 Bft) 0,00 %
07.02.2015 01:45 -3,8 C 55 % 1026,1 hPa 0,0 l/m 4,0 km/h (1 Bft) O 86 0 min 0,000 mm 0,0 UV-I 0 W/m -11,5 C -3,8 C 7,9 km/h (2 Bft) 0,00 %
07.02.2015 02:00 -3,8 C 55 % 1026,1 hPa 0,0 l/m 2,9 km/h (1 Bft) NO 41 0 min 0,000 mm 0,0 UV-I 0 W/m -11,5 C -3,8 C 4,0 km/h (1 Bft) 0,00 %
07.02.2015 02:15 -3,9 C 56 % 1026,3 hPa 0,0 l/m 0,4 km/h (0 Bft) O 97 0 min 0,000 mm 0,0 UV-I 0 W/m -11,4 C -3,9 C 4,0 km/h (1 Bft) 0,00 %
07.02.2015 02:30 -3,9 C 56 % 1026,4 hPa 0,0 l/m 0,4 km/h (0 Bft) N 357 0 min 0,000 mm 0,0 UV-I 0 W/m -11,4 C -3,9 C 4,0 km/h (1 Bft) 0,00 %
07.02.2015 02:45 -4,0 C 56 % 1026,6 hPa 0,0 l/m 0,7 km/h (0 Bft) O-NO 62 0 min 0,000 mm 0,0 UV-I 0 W/m -11,5 C -4,0 C 4,0 km/h (1 Bft) 0,00 %
07.02.2015 03:00 -4,0 C 56 % 1026,8 hPa 0,0 l/m 0,0 km/h (0 Bft) S-SO 166 0 min 0,000 mm 0,0 UV-I 0 W/m -11,5 C -4,0 C 0,0 km/h (0 Bft) 0,00 %
07.02.2015 03:15 -4,1 C 56 % 1026,9 hPa 0,0 l/m 0,4 km/h (0 Bft) N-NO 28 0 min 0,000 mm 0,0 UV-I 0 W/m -11,5 C -4,1 C 4,0 km/h (1 Bft) 0,00 %
07.02.2015 03:30 -4,1 C 56 % 1026,9 hPa 0,0 l/m 0,4 km/h (0 Bft) O-NO 61 0 min 0,000 mm 0,0 UV-I 0 W/m -11,5 C -4,1 C 4,0 km/h (1 Bft) 0,00 %
07.02.2015 03:45 -4,1 C 55 % 1026,9 hPa 0,0 l/m 0,0 km/h (0 Bft) SW 233 0 min 0,000 mm 0,0 UV-I 0 W/m -11,8 C -4,1 C 0,0 km/h (0 Bft) 0,00 %
07.02.2015 04:00 -4,1 C 54 % 1026,9 hPa 0,0 l/m 0,0 km/h (0 Bft) S 181 0 min 0,000 mm 0,0 UV-I 0 W/m -12,0 C -4,1 C 0,0 km/h (0 Bft) 0,00 %
07.02.2015 04:15 -4,2 C 55 % 1026,9 hPa 0,0 l/m 0,0 km/h (0 Bft) S 190 0 min 0,000 mm 0,0 UV-I 0 W/m -11,9 C -4,2 C 0,0 km/h (0 Bft) 0,00 %
07.02.2015 04:30 -4,2 C 55 % 1027,2 hPa 0,0 l/m 0,4 km/h (0 Bft) NO 39 0 min 0,000 mm 0,0 UV-I 0 W/m -11,9 C -4,2 C 4,0 km/h (1 Bft) 0,00 %
07.02.2015 04:45 -4,2 C 54 % 1027,1 hPa 0,0 l/m 0,7 km/h (0 Bft) S-SW 200 0 min 0,000 mm 0,0 UV-I 0 W/m -12,1 C -4,2 C 4,0 km/h (1 Bft) 0,00 %
07.02.2015 05:00 -4,3 C 54 % 1027,3 hPa 0,0 l/m 0,4 km/h (0 Bft) O-SO 121 0 min 0,000 mm 0,0 UV-I 0 W/m -12,2 C -4,3 C 4,0 km/h (1 Bft) 0,00 %
07.02.2015 05:15 -4,3 C 55 % 1027,5 hPa 0,0 l/m 1,4 km/h (1 Bft) O 99 0 min 0,000 mm 0,0 UV-I 0 W/m -12,0 C -4,3 C 4,0 km/h (1 Bft) 0,00 %
07.02.2015 05:30 -4,4 C 54 % 1027,4 hPa 0,0 l/m 4,0 km/h (1 Bft) O 99 0 min 0,000 mm 0,0 UV-I 0 W/m -12,3 C -4,4 C 7,9 km/h (2 Bft) 0,00 %
07.02.2015 05:45 -4,4 C 54 % 1027,6 hPa 0,0 l/m 1,8 km/h (1 Bft) O-NO 66 0 min 0,000 mm 0,0 UV-I 0 W/m -12,3 C -4,4 C 4,0 km/h (1 Bft) 0,00 %
07.02.2015 06:00 -4,4 C 54 % 1027,7 hPa 0,0 l/m 0,7 km/h (0 Bft) O 97 0 min 0,000 mm 0,0 UV-I 0 W/m -12,3 C -4,4 C 4,0 km/h (1 Bft) 0,00 %
07.02.2015 06:15 -4,4 C 54 % 1027,4 hPa 0,0 l/m 0,4 km/h (0 Bft) NO 55 0 min 0,000 mm 0,0 UV-I 0 W/m -12,3 C -4,4 C 4,0 km/h (1 Bft) 0,00 %
07.02.2015 06:30 -4,5 C 55 % 1027,7 hPa 0,0 l/m 0,7 km/h (0 Bft) W-SW 256 0 min 0,000 mm 0,0 UV-I 0 W/m -12,1 C -4,5 C 4,0 km/h (1 Bft) 0,00 %
07.02.2015 06:45 -4,5 C 56 % 1027,9 hPa 0,0 l/m 4,7 km/h (1 Bft) O 81 0 min 0,000 mm 0,0 UV-I 0 W/m -11,9 C -4,5 C 7,9 km/h (2 Bft) 0,00 %
07.02.2015 07:00 -4,5 C 56 % 1027,7 hPa 0,0 l/m 1,4 km/h (1 Bft) O-NO 65 0 min 0,000 mm 0,0 UV-I 0 W/m -11,9 C -4,5 C 4,0 km/h (1 Bft) 0,00 %
07.02.2015 07:15 -4,6 C 55 % 1028,0 hPa 0,0 l/m 1,4 km/h (1 Bft) N-NO 24 0 min 0,000 mm 0,0 UV-I 0 W/m -12,2 C -4,6 C 4,0 km/h (1 Bft) 0,00 %
07.02.2015 07:30 -4,6 C 55 % 1028,1 hPa 0,0 l/m 2,2 km/h (1 Bft) SO 134 0 min 0,000 mm 0,0 UV-I 0 W/m -12,2 C -4,6 C 4,0 km/h (1 Bft) 0,00 %
07.02.2015 07:45 -4,6 C 56 % 1028,1 hPa 0,0 l/m 2,9 km/h (1 Bft) O 79 0 min 0,000 mm 0,0 UV-I 3 W/m -12,0 C -4,6 C 4,0 km/h (1 Bft) 0,00 %
07.02.2015 08:00 -4,5 C 54 % 1028,1 hPa 0,0 l/m 0,7 km/h (0 Bft) SO 124 0 min 0,000 mm 0,0 UV-I 17 W/m -12,4 C -4,5 C 4,0 km/h (1 Bft) 0,00 %
07.02.2015 08:15 -4,4 C 53 % 1028,2 hPa 0,0 l/m 0,0 km/h (0 Bft) SO 133 0 min 0,000 mm 0,0 UV-I 26 W/m -12,5 C -4,4 C 0,0 km/h (0 Bft) 0,00 %
07.02.2015 08:30 -4,3 C 54 % 1028,1 hPa 0,0 l/m 3,2 km/h (1 Bft) O 92 0 min 0,000 mm 1,0 UV-I 46 W/m -12,2 C -4,3 C 4,0 km/h (1 Bft) 0,00 %
07.02.2015 08:45 -4,2 C 53 % 1028,3 hPa 0,0 l/m 5,4 km/h (1 Bft) O-SO 118 0 min 0,000 mm 1,0 UV-I 63 W/m -12,3 C -4,2 C 7,9 km/h (2 Bft) 0,00 %
07.02.2015 09:00 -4,0 C 52 % 1028,3 hPa 0,0 l/m 0,0 km/h (0 Bft) O-SO 110 0 min 0,000 mm 1,0 UV-I 83 W/m -12,4 C -4,0 C 0,0 km/h (0 Bft) 0,00 %
07.02.2015 09:15 -3,9 C 52 % 1028,2 hPa 0,0 l/m 4,3 km/h (1 Bft) O-SO 115 0 min 0,000 mm 1,0 UV-I 94 W/m -12,3 C -3,9 C 7,9 km/h (2 Bft) 0,00 %
07.02.2015 09:30 -3,8 C 52 % 1028,1 hPa 0,0 l/m 0,7 km/h (0 Bft) O-SO 119 0 min 0,000 mm 1,0 UV-I 115 W/m -12,2 C -3,8 C 4,0 km/h (1 Bft) 0,00 %
07.02.2015 09:45 -3,6 C 51 % 1028,3 hPa 0,0 l/m 2,2 km/h (1 Bft) O-SO 119 0 min 0,000 mm 1,0 UV-I 130 W/m -12,2 C -3,6 C 4,0 km/h (1 Bft) 0,00 %
07.02.2015 10:00 -3,6 C 51 % 1028,2 hPa 0,0 l/m 6,5 km/h (2 Bft) O 93 0 min 0,000 mm 2,0 UV-I 151 W/m -12,2 C -3,7 C 7,9 km/h (2 Bft) 0,00 %
07.02.2015 10:15 -3,3 C 49 % 1028,3 hPa 0,0 l/m 0,0 km/h (0 Bft) SO 133 0 min 0,000 mm 2,0 UV-I 197 W/m -12,5 C -3,3 C 0,0 km/h (0 Bft) 0,00 %
07.02.2015 10:30 -2,3 C 48 % 1028,1 hPa 0,0 l/m 0,0 km/h (0 Bft) SO 125 0 min 0,000 mm 2,0 UV-I 184 W/m -11,8 C -2,3 C 0,0 km/h (0 Bft) 0,00 %
07.02.2015 10:45 -3,4 C 50 % 1028,1 hPa 0,0 l/m 0,4 km/h (0 Bft) S 173 0 min 0,000 mm 2,0 UV-I 117 W/m -12,3 C -3,4 C 4,0 km/h (1 Bft) 0,00 %
07.02.2015 11:00 -3,4 C 48 % 1028,2 hPa 0,0 l/m 0,7 km/h (0 Bft) SO 145 0 min 0,000 mm 2,0 UV-I 92 W/m -12,8 C -3,4 C 4,0 km/h (1 Bft) 0,00 %
07.02.2015 11:15 -2,9 C 48 % 1027,9 hPa 0,0 l/m 2,2 km/h (1 Bft) O-SO 104 0 min 0,000 mm 2,0 UV-I 117 W/m -12,3 C -2,9 C 4,0 km/h (1 Bft) 0,00 %
07.02.2015 11:30 -2,9 C 48 % 1027,8 hPa 0,0 l/m 0,7 km/h (0 Bft) SO 129 0 min 0,000 mm 2,0 UV-I 118 W/m -12,3 C -2,9 C 4,0 km/h (1 Bft) 0,00 %
07.02.2015 11:45 -2,1 C 51 % 1027,7 hPa 0,0 l/m 0,0 km/h (0 Bft) O 89 0 min 0,000 mm 2,0 UV-I 120 W/m -10,8 C -2,1 C 0,0 km/h (0 Bft) 0,00 %
07.02.2015 12:00 -2,6 C 48 % 1027,5 hPa 0,0 l/m 0,0 km/h (0 Bft) S 181 0 min 0,000 mm 2,0 UV-I 121 W/m -12,1 C -2,6 C 0,0 km/h (0 Bft) 0,00 %
07.02.2015 12:15 -2,2 C 51 % 1027,2 hPa 0,0 l/m 0,0 km/h (0 Bft) S 177 0 min 0,000 mm 2,0 UV-I 120 W/m -10,9 C -2,2 C 0,0 km/h (0 Bft) 0,00 %
07.02.2015 12:30 -2,6 C 47 % 1027,1 hPa 0,0 l/m 0,0 km/h (0 Bft) W-SW 253 0 min 0,000 mm 2,0 UV-I 117 W/m -12,3 C -2,6 C 0,0 km/h (0 Bft) 0,00 %
07.02.2015 12:45 -2,7 C 48 % 1026,9 hPa 0,0 l/m 0,0 km/h (0 Bft) O-SO 116 0 min 0,000 mm 2,0 UV-I 116 W/m -12,2 C -2,7 C 0,0 km/h (0 Bft) 0,00 %
07.02.2015 13:00 -2,6 C 47 % 1026,8 hPa 0,0 l/m 0,0 km/h (0 Bft) S-SW 199 0 min 0,000 mm 2,0 UV-I 117 W/m -12,3 C -2,6 C 0,0 km/h (0 Bft) 0,00 %
07.02.2015 13:15 -2,5 C 52 % 1026,6 hPa 0,0 l/m 0,0 km/h (0 Bft) O 89 0 min 0,000 mm 2,0 UV-I 112 W/m -11,0 C -2,5 C 0,0 km/h (0 Bft) 0,00 %
07.02.2015 13:30 -2,6 C 51 % 1026,3 hPa 0,0 l/m 0,0 km/h (0 Bft) SW 215 0 min 0,000 mm 2,0 UV-I 110 W/m -11,3 C -2,6 C 0,0 km/h (0 Bft) 0,00 %
07.02.2015 13:45 -2,3 C 52 % 1026,3 hPa 0,0 l/m 0,4 km/h (0 Bft) O-SO 114 0 min 0,000 mm 2,0 UV-I 188 W/m -10,8 C -2,3 C 4,0 km/h (1 Bft) 0,00 %
07.02.2015 14:00 -2,4 C 51 % 1026,1 hPa 0,0 l/m 0,0 km/h (0 Bft) O 99 0 min 0,000 mm 2,0 UV-I 199 W/m -11,1 C -2,4 C 0,0 km/h (0 Bft) 0,00 %
07.02.2015 14:15 -2,3 C 52 % 1025,8 hPa 0,0 l/m 0,0 km/h (0 Bft) S 183 15 min 0,000 mm 2,0 UV-I 210 W/m -10,8 C -2,3 C 0,0 km/h (0 Bft) 0,00 %
07.02.2015 14:30 -2,0 C 50 % 1025,6 hPa 0,0 l/m 0,0 km/h (0 Bft) W-SW 244 15 min 0,000 mm 2,0 UV-I 205 W/m -11,0 C -2,0 C 0,0 km/h (0 Bft) 0,00 %
07.02.2015 14:45 -2,1 C 50 % 1025,4 hPa 0,0 l/m 0,0 km/h (0 Bft) W-SW 240 15 min 0,000 mm 1,0 UV-I 206 W/m -11,1 C -2,1 C 0,0 km/h (0 Bft) 0,00 %
07.02.2015 15:00 -1,8 C 47 % 1025,1 hPa 0,0 l/m 0,0 km/h (0 Bft) S-SW 195 15 min 0,000 mm 1,0 UV-I 204 W/m -11,6 C -1,8 C 0,0 km/h (0 Bft) 0,00 %
07.02.2015 15:15 -1,8 C 50 % 1025,0 hPa 0,0 l/m 0,0 km/h (0 Bft) N 355 15 min 0,000 mm 1,0 UV-I 201 W/m -10,8 C -1,8 C 0,0 km/h (0 Bft) 0,00 %
07.02.2015 15:30 -1,9 C 51 % 1025,2 hPa 0,0 l/m 0,0 km/h (0 Bft) S-SW 193 15 min 0,000 mm 1,0 UV-I 180 W/m -10,7 C -1,9 C 0,0 km/h (0 Bft) 0,00 %
07.02.2015 15:45 -1,9 C 51 % 1025,0 hPa 0,0 l/m 0,0 km/h (0 Bft) S-SW 204 15 min 0,000 mm 1,0 UV-I 170 W/m -10,7 C -1,9 C 0,0 km/h (0 Bft) 0,00 %
07.02.2015 16:00 -2,1 C 52 % 1025,1 hPa 0,0 l/m 0,0 km/h (0 Bft) S 173 15 min 0,000 mm 1,0 UV-I 150 W/m -10,6 C -2,1 C 0,0 km/h (0 Bft) 0,00 %
07.02.2015 16:15 -2,3 C 52 % 1025,1 hPa 0,0 l/m 0,0 km/h (0 Bft) S-SW 204 0 min 0,000 mm 1,0 UV-I 58 W/m -10,8 C -2,3 C 0,0 km/h (0 Bft) 0,00 %
07.02.2015 16:30 -2,5 C 49 % 1025,1 hPa 0,0 l/m 0,0 km/h (0 Bft) SW 228 0 min 0,000 mm 0,0 UV-I 47 W/m -11,7 C -2,5 C 0,0 km/h (0 Bft) 0,00 %
07.02.2015 16:45 -2,9 C 49 % 1025,2 hPa 0,0 l/m 0,0 km/h (0 Bft) S-SW 192 15 min 0,000 mm 0,0 UV-I 50 W/m -12,1 C -2,9 C 0,0 km/h (0 Bft) 0,00 %
07.02.2015 17:00 -3,4 C 51 % 1025,5 hPa 0,0 l/m 0,0 km/h (0 Bft) S 182 15 min 0,000 mm 0,0 UV-I 11 W/m -12,1 C -3,4 C 0,0 km/h (0 Bft) 0,00 %
07.02.2015 17:15 -4,0 C 53 % 1025,6 hPa 0,0 l/m 0,0 km/h (0 Bft) S-SW 206 0 min 0,000 mm 0,0 UV-I 0 W/m -12,1 C -4,0 C 0,0 km/h (0 Bft) 0,00 %
07.02.2015 17:30 -4,5 C 57 % 1025,8 hPa 0,0 l/m 0,0 km/h (0 Bft) S-SW 201 0 min 0,000 mm 0,0 UV-I 0 W/m -11,7 C -4,5 C 0,0 km/h (0 Bft) 0,00 %
07.02.2015 17:45 -4,9 C 59 % 1025,6 hPa 0,0 l/m 0,0 km/h (0 Bft) W-SW 253 0 min 0,000 mm 0,0 UV-I 0 W/m -11,6 C -4,9 C 0,0 km/h (0 Bft) 0,00 %
07.02.2015 18:00 -4,9 C 59 % 1025,4 hPa 0,0 l/m 0,0 km/h (0 Bft) SW 219 0 min 0,000 mm 0,0 UV-I 0 W/m -11,6 C -4,9 C 0,0 km/h (0 Bft) 0,00 %
07.02.2015 18:15 -4,9 C 58 % 1025,4 hPa 0,0 l/m 0,0 km/h (0 Bft) S-SW 210 0 min 0,000 mm 0,0 UV-I 0 W/m -11,9 C -4,9 C 0,0 km/h (0 Bft) 0,00 %
07.02.2015 18:30 -5,1 C 59 % 1025,2 hPa 0,0 l/m 0,4 km/h (0 Bft) SW 214 0 min 0,000 mm 0,0 UV-I 0 W/m -11,8 C -5,1 C 4,0 km/h (1 Bft) 0,00 %
07.02.2015 18:45 -5,2 C 59 % 1025,0 hPa 0,0 l/m 0,0 km/h (0 Bft) W-SW 240 0 min 0,000 mm 0,0 UV-I 0 W/m -11,9 C -5,2 C 0,0 km/h (0 Bft) 0,00 %
07.02.2015 19:00 -5,5 C 61 % 1024,8 hPa 0,0 l/m 0,0 km/h (0 Bft) O-SO 123 0 min 0,000 mm 0,0 UV-I 0 W/m -11,8 C -5,5 C 0,0 km/h (0 Bft) 0,00 %
07.02.2015 19:15 -5,4 C 61 % 1024,8 hPa 0,0 l/m 0,0 km/h (0 Bft) S 190 0 min 0,000 mm 0,0 UV-I 0 W/m -11,7 C -5,4 C 0,0 km/h (0 Bft) 0,00 %
07.02.2015 19:30 -5,0 C 59 % 1024,9 hPa 0,0 l/m 0,0 km/h (0 Bft) W-SW 256 0 min 0,000 mm 0,0 UV-I 0 W/m -11,7 C -5,0 C 0,0 km/h (0 Bft) 0,00 %
07.02.2015 19:45 -4,9 C 59 % 1024,8 hPa 0,0 l/m 0,0 km/h (0 Bft) W-SW 254 0 min 0,000 mm 0,0 UV-I 0 W/m -11,6 C -4,9 C 0,0 km/h (0 Bft) 0,00 %
07.02.2015 20:00 -5,2 C 60 % 1025,0 hPa 0,0 l/m 1,4 km/h (1 Bft) W-SW 252 0 min 0,000 mm 0,0 UV-I 0 W/m -11,7 C -5,2 C 4,0 km/h (1 Bft) 0,00 %
07.02.2015 20:15 -5,2 C 60 % 1024,8 hPa 0,0 l/m 0,7 km/h (0 Bft) W-SW 254 0 min 0,000 mm 0,0 UV-I 0 W/m -11,7 C -5,2 C 4,0 km/h (1 Bft) 0,00 %
07.02.2015 20:30 -5,3 C 60 % 1024,4 hPa 0,0 l/m 0,0 km/h (0 Bft) W-SW 255 0 min 0,000 mm 0,0 UV-I 0 W/m -11,8 C -5,3 C 0,0 km/h (0 Bft) 0,00 %
07.02.2015 20:45 -5,5 C 61 % 1024,7 hPa 0,0 l/m 0,4 km/h (0 Bft) W-SW 253 0 min 0,000 mm 0,0 UV-I 0 W/m -11,8 C -5,5 C 4,0 km/h (1 Bft) 0,00 %
07.02.2015 21:00 -5,4 C 60 % 1024,3 hPa 0,0 l/m 0,0 km/h (0 Bft) SW 231 0 min 0,000 mm 0,0 UV-I 0 W/m -11,9 C -5,4 C 0,0 km/h (0 Bft) 0,00 %
07.02.2015 21:15 -5,4 C 61 % 1024,1 hPa 0,0 l/m 0,0 km/h (0 Bft) SO 139 0 min 0,000 mm 0,0 UV-I 0 W/m -11,7 C -5,4 C 0,0 km/h (0 Bft) 0,00 %
07.02.2015 21:30 -5,5 C 60 % 1024,6 hPa 0,0 l/m 4,3 km/h (1 Bft) W-SW 256 0 min 0,000 mm 0,0 UV-I 0 W/m -12,0 C -5,5 C 7,9 km/h (2 Bft) 0,00 %
07.02.2015 21:45 -5,4 C 60 % 1024,0 hPa 0,0 l/m 0,0 km/h (0 Bft) O 85 0 min 0,000 mm 0,0 UV-I 0 W/m -11,9 C -5,4 C 0,0 km/h (0 Bft) 0,00 %
07.02.2015 22:00 -5,3 C 60 % 1023,8 hPa 0,0 l/m 0,4 km/h (0 Bft) SW 222 0 min 0,000 mm 0,0 UV-I 0 W/m -11,8 C -5,3 C 4,0 km/h (1 Bft) 0,00 %
07.02.2015 22:15 -5,2 C 60 % 1022,8 hPa 0,0 l/m 0,7 km/h (0 Bft) SO 133 0 min 0,000 mm 0,0 UV-I 0 W/m -11,7 C -5,2 C 4,0 km/h (1 Bft) 0,00 %
07.02.2015 22:30 -4,9 C 60 % 1022,9 hPa 0,0 l/m 0,0 km/h (0 Bft) S 189 0 min 0,000 mm 0,0 UV-I 0 W/m -11,4 C -4,9 C 0,0 km/h (0 Bft) 0,00 %
07.02.2015 22:45 -4,8 C 60 % 1022,5 hPa 0,0 l/m 0,4 km/h (0 Bft) N-NW 346 0 min 0,000 mm 0,0 UV-I 0 W/m -11,3 C -4,8 C 4,0 km/h (1 Bft) 0,00 %
07.02.2015 23:00 -4,7 C 60 % 1022,2 hPa 0,0 l/m 4,0 km/h (1 Bft) W-SW 255 0 min 0,000 mm 0,0 UV-I 0 W/m -11,3 C -4,7 C 11,9 km/h (2 Bft) 0,00 %
07.02.2015 23:15 -4,7 C 59 % 1022,3 hPa 0,0 l/m 12,2 km/h (2 Bft) W-SW 252 0 min 0,000 mm 0,0 UV-I 0 W/m -11,5 C -10,6 C 19,8 km/h (3 Bft) 0,00 %
07.02.2015 23:30 -4,6 C 59 % 1022,6 hPa 0,0 l/m 2,9 km/h (1 Bft) W-SW 238 0 min 0,000 mm 0,0 UV-I 0 W/m -11,4 C -4,6 C 7,9 km/h (2 Bft) 0,00 %
07.02.2015 23:45 -4,8 C 60 % 1022,0 hPa 0,0 l/m 0,0 km/h (0 Bft) N-NO 17 0 min 0,000 mm 0,0 UV-I 0 W/m -11,3 C -4,8 C 0,0 km/h (0 Bft) 0,00 %
_ Min-Zeit 19:00 12:30 23:45 - 03:00 - - - - - - 11:00 23:15 03:00 00:00
Minimum _ -5,5 C 47 % 1022,0 hPa - 0,0 km/h (0 Bft) - - - - - - -12,8 C -10,6 C 0,0 km/h (0 Bft) 0,00 %
_ Max-Zeit 15:00 19:00 08:45 00:00 23:15 - - 14:15 00:00 10:00 14:15 16:00 15:00 23:15 00:00
Maximum _ -1,8 C 61 % 1028,3 hPa 0,0 l/m 12,2 km/h
W-SW (2 Bft)
- - 15 min 0,000 mm 2,0 UV-I 210 W/m -10,6 C -1,8 C 19,8 km/h
W-SW (3 Bft)
0,00 %
Durchschnitt _ -3,9 C 54 % 1026,1 hPa #0,0 l/m 1,2 km/h (1 Bft) O - #2:30 h #0,000 mm 1,6 UV-I 120 W/m -11,7 C -4,0 C 2,9 km/h (1 Bft) 0,00 %